TimeEST,TemperatureF,Dew PointF,Humidity,Sea Level PressureIn,VisibilityMPH,Wind Direction,Wind SpeedMPH,Gust SpeedMPH,PrecipitationIn,Events,Conditions,WindDirDegrees,DateUTC
12:51 AM,26.6,26.6,100,29.77,0.2,North,9.2,18.4,N/A,Fog-Snow,Blowing Snow,10,2013-02-09 05:51:00
1:51 AM,27.0,27.0,100,29.78,0.2,North,5.8,-,0.07,Fog-Snow,Blowing Snow,350,2013-02-09 06:51:00
2:51 AM,28.0,28.0,100,29.79,0.8,NNW,9.2,-,0.10,Snow,Light Snow,340,2013-02-09 07:51:00
2:54 AM,28.4,28.4,100,29.79,1.5,NNW,11.5,-,0.00,Snow,Light Snow,340,2013-02-09 07:54:00
2:58 AM,28.4,28.4,100,29.79,3.0,NNW,8.1,-,0.00,Snow,Light Snow,340,2013-02-09 07:58:00
3:17 AM,28.4,28.4,100,29.79,4.0,North,9.2,-,0.01,Snow,Light Snow,350,2013-02-09 08:17:00
3:39 AM,28.4,26.6,93,29.80,9.0,North,9.2,18.4,0.01,,Overcast,360,2013-02-09 08:39:00
3:51 AM,28.9,26.1,89,29.81,4.0,NNW,10.4,18.4,0.01,Snow,Light Snow,340,2013-02-09 08:51:00
4:51 AM,28.0,25.0,88,29.83,9.0,North,8.1,-,0.00,,Overcast,350,2013-02-09 09:51:00
4:58 AM,28.4,24.8,86,29.83,10.0,NNW,6.9,-,N/A,,Overcast,340,2013-02-09 09:58:00
5:37 AM,28.4,24.8,86,29.83,7.0,NW,11.5,19.6,N/A,,Overcast,310,2013-02-09 10:37:00
5:51 AM,28.9,23.0,78,29.83,10.0,NW,11.5,18.4,N/A,,Overcast,320,2013-02-09 10:51:00
6:51 AM,28.9,23.0,78,29.86,10.0,NW,15.0,23.0,N/A,,Scattered Clouds,320,2013-02-09 11:51:00
7:51 AM,28.9,21.0,72,29.89,10.0,WNW,16.1,21.9,N/A,,Scattered Clouds,300,2013-02-09 12:51:00
8:51 AM,27.0,18.0,69,29.94,10.0,NW,12.7,24.2,N/A,,Clear,320,2013-02-09 13:51:00
9:51 AM,26.1,17.1,69,29.96,8.0,NW,26.5,35.7,N/A,,Clear,320,2013-02-09 14:51:00
10:51 AM,27.0,16.0,63,30.00,10.0,NW,18.4,32.2,N/A,,Clear,320,2013-02-09 15:51:00
11:51 AM,28.9,16.0,58,30.01,10.0,NNW,15.0,31.1,N/A,,Clear,330,2013-02-09 16:51:00
12:51 PM,30.0,14.0,51,30.02,10.0,NNW,19.6,34.5,N/A,,Clear,340,2013-02-09 17:51:00
1:51 PM,32.0,10.9,42,30.04,10.0,NNW,17.3,25.3,N/A,,Clear,340,2013-02-09 18:51:00
2:51 PM,32.0,9.0,38,30.06,10.0,NW,17.3,29.9,0.00,,Clear,320,2013-02-09 19:51:00
3:51 PM,32.0,6.1,34,30.09,10.0,NNW,13.8,26.5,N/A,,Clear,330,2013-02-09 20:51:00
4:51 PM,30.9,6.1,35,30.12,10.0,NNW,11.5,20.7,N/A,,Clear,330,2013-02-09 21:51:00
5:51 PM,28.9,3.9,35,30.16,10.0,NNW,16.1,26.5,N/A,,Clear,340,2013-02-09 22:51:00
6:51 PM,28.0,3.9,36,30.20,10.0,NNW,17.3,23.0,N/A,,Clear,330,2013-02-09 23:51:00
7:51 PM,26.1,3.0,37,30.23,10.0,NNW,8.1,-,N/A,,Clear,340,2013-02-10 00:51:00
8:51 PM,24.1,3.9,42,30.26,10.0,NW,10.4,-,N/A,,Clear,320,2013-02-10 01:51:00
9:51 PM,23.0,3.9,44,30.31,10.0,NW,13.8,-,N/A,,Clear,320,2013-02-10 02:51:00
10:51 PM,21.0,5.0,50,30.32,10.0,NW,9.2,-,N/A,,Clear,320,2013-02-10 03:51:00
11:51 PM,19.9,5.0,52,30.35,10.0,NW,5.8,-,N/A,,Clear,320,2013-02-10 04:51:00